Flag for Canada Weather past 2 weeks in Brantford, Ontario, Canada

Now
61 °F

Fog.


Feels Like: 61 °F
Forecast: 55 / 72 °F
Wind: 7 mph from Northeast

Location: Hamilton Airport

Current Time: Oct 2, 2014 at 10:12:12 AM

Latest Report: Oct 2, 2014 at 9:00 AM


Visibility: 2 mi

Pressure: 30.10 "Hg

Humidity: 94%

Dew point: 59 °F

Location of BrantfordLocation

Historic Weather in Brantford — Graph

°F

Brantford temperature yesterday

Maximum temperature yesterday: 59 °F (at 12:00 AM)
Minimum temperature yesterday: 57 °F (at 5:00 AM)
Average temperature yesterday: 58 °F

Past Weeks' High & Low Weather Summary

 TemperatureHumidityPressure
High77 °F (Sep 28, 4:00 PM)100% (Sep 18, 2:00 AM)30.51 "Hg (Sep 18, 2:00 AM)
Low39 °F (Sep 19, 6:00 AM)44% (Sep 27, 3:00 PM)29.54 "Hg (Sep 21, 9:00 AM)
Average59 °F80%30.12 "Hg
* Reported Sep 17 9:00 AM — Oct 2 9:00 AM, Brantford, Weather by CustomWeather, © 2014

Note: Actual official high and low records may vary slightly from our data, if they occured in-between our weather recording intervals... More about our weather records

Advertising

Brantford weather history for previous 24 hours

 ConditionsComfort  
Time TempWeatherWind HumidityBarometerVisibility
9:00 AM
Oct 2
61 °FFog.7 mph94%30.10 "Hg2 mi
8:00 AM59 °FFog.8 mph94%30.08 "Hg2 mi
7:00 AM59 °FFog.7 mph94%30.08 "Hg2 mi
6:00 AM57 °FFog.7 mph100%30.08 "Hg4 mi
5:00 AM59 °FFog.5 mph94%30.08 "Hg4 mi
4:00 AM59 °FScattered showers. Fog.6 mph94%30.07 "Hg4 mi
3:00 AM59 °FScattered showers. Fog.5 mph94%30.09 "Hg5 mi
2:00 AM59 °FFog.7 mph94%30.08 "Hg4 mi
1:00 AM59 °FFog.9 mph94%30.08 "Hg3 mi
12:00 AM59 °FFog.10 mph94%30.09 "Hg3 mi
11:00 PM
Oct 1
59 °FFog.10 mph100%30.09 "Hg6 mi
10:00 PM59 °FFog.10 mph100%30.09 "Hg2 mi
9:00 PM59 °FFog.13 mph100%30.08 "Hg2 mi
8:00 PM57 °FFog.15 mph100%30.07 "Hg1 mi
7:00 PM57 °FFog.13 mph100%30.08 "Hg0 mi
6:00 PM59 °FLight rain. Fog.12 mph94%30.07 "Hg0 mi
5:00 PM59 °FLight rain. Fog.13 mph100%30.06 "Hg1 mi
4:00 PM59 °FLight rain. Fog.12 mph100%30.06 "Hg2 mi
3:00 PM59 °FLight rain. Fog.9 mph100%30.07 "Hg2 mi
2:00 PM59 °FLight rain. Fog.10 mph100%30.08 "Hg2 mi
1:00 PM59 °FLight rain. Fog.10 mph100%30.09 "Hg2 mi
12:00 PM59 °FDrizzle. Fog.10 mph94%30.09 "Hg2 mi
11:00 AM59 °FDrizzle. Fog.12 mph94%30.09 "Hg5 mi
10:00 AM59 °FDrizzle. Fog.10 mph94%30.08 "Hg6 mi
Weather by CustomWeather, © 2014

See weather overviewHow to use our weather pages